Location: Proctor
(47.8934°N, 114.3048°W)
Time: 22:18:22
(UTC+00:00)

AO-92 - Pass Details

Date: 08 July 2022
Orbit: 469 x 481 km, 97.4° (Epoch: 13 August)

Event Time Altitude Azimuth Distance (km) Brightness Sun altitude
Exits shadow 05:36:21 25° 168° (SSE) 1,001 ? -14.2°
Maximum altitude 05:38:19 86° 254° (WSW) 490 ? -14.3°
Drops below altitude 10° 05:41:55 10° 346° (NNW) 1,674 ? -14.6°
Sets 05:44:00 0° 347° (NNW) 2,561 ? -14.8°
